Weather History for Oxford, CT

Change the Weather History Date:

Tuesday, November 12, 2013

  Actual Average Record
Temperature  
Mean Temperature 37 °F -  
Max Temperature 48 °F 46 °F 62 °F (2012)
Min Temperature 26 °F 31 °F 23 °F (2007)
Degree Days  
Heating Degree Days 28    
Moisture  
Dew Point 21 °F    
Average Humidity 58    
Maximum Humidity 81    
Minimum Humidity 46    
Precipitation  
Precipitation 0.04 in - - ()
Sea Level Pressure  
Sea Level Pressure 30.08 in    
Wind  
Wind Speed 10 mph (NW)    
Max Wind Speed 20 mph    
Max Gust Speed 30 mph    
Visibility 9 miles    
Events Snow    
Averages and records for this station are not official NWS values.
T = Trace of Precipitation, MM = Missing Value Source: NWS Daily Summary

Daily Weather History Graph

Daily Weather History Graph

Search for Another Location

Airport:

Trip Planner

Search our weather history database for the weather conditions in past years. The results will help you decide how hot, cold, wet, or windy it might be!

Date:

Astronomy

Nov. 12, 2013 Rise Set
Actual Time 6:37 AM EST 4:35 PM EST
Civil Twilight 6:08 AM EST 5:04 PM EST
Nautical Twilight 5:34 AM EST 5:38 PM EST
Astronomical Twilight 5:02 AM EST 6:10 PM EST
Moon 1:51 PM EST (11/12) 1:21 AM EST (11/12)
Length of Visible Light 10h 56m
Length of Day
9h 57m
Waxing Gibbous, 76% of the Moon is Illuminated
Nov 12
Waxing Gibbous
Nov 17
Full
Nov 25
Last Quarter
Dec 2
New
Dec 9
First Quarter

Hourly Weather History & Observations

Time (EST) Temp. Windchill Dew Point Humidity Pressure Visibility Wind Dir Wind Speed Gust Speed Precip Events Conditions
12:15 AM 48.2 °F - 28.4 °F 46% 29.95 in 10.0 mi WSW 9.2 mph - N/A   Overcast
12:35 AM 48.2 °F - 28.4 °F 46% 29.94 in 10.0 mi WSW 5.8 mph - N/A   Overcast
12:55 AM 48.2 °F - 28.4 °F 46% 29.94 in 10.0 mi WSW 6.9 mph - N/A   Overcast
1:15 AM 48.2 °F - 28.4 °F 46% 29.93 in 10.0 mi WSW 5.8 mph - N/A   Overcast
1:35 AM 48.2 °F - 28.4 °F 46% 29.93 in 10.0 mi West 3.5 mph - N/A   Overcast
1:55 AM 48.2 °F - 28.4 °F 46% 29.93 in 10.0 mi West 4.6 mph - N/A   Overcast
2:15 AM 48.2 °F - 28.4 °F 46% 29.93 in 10.0 mi West 6.9 mph - N/A   Overcast
2:35 AM 46.4 °F 45.2 °F 28.4 °F 50% 29.93 in 10.0 mi WNW 3.5 mph - N/A   Overcast
2:55 AM 46.4 °F 41.5 °F 28.4 °F 50% 29.94 in 10.0 mi NW 10.4 mph - N/A   Overcast
3:15 AM 44.6 °F 38.8 °F 30.2 °F 57% 29.94 in 10.0 mi WNW 11.5 mph 20.7 mph N/A   Overcast
3:35 AM 44.6 °F 40.2 °F 30.2 °F 57% 29.95 in 10.0 mi West 8.1 mph - N/A   Overcast
3:55 AM 42.8 °F 38.6 °F 32.0 °F 66% 29.95 in 10.0 mi West 6.9 mph - N/A   Overcast
4:15 AM 42.8 °F 39.3 °F 32.0 °F 66% 29.95 in 10.0 mi NW 5.8 mph - 0.01 in   Overcast
4:35 AM 39.2 °F 30.5 °F 30.2 °F 70% 29.97 in 10.0 mi NNW 16.1 mph 28.8 mph 0.02 in   Overcast
4:55 AM 35.6 °F 26.6 °F 28.4 °F 75% 29.97 in 10.0 mi North 13.8 mph 21.9 mph 0.03 in   Overcast
5:15 AM 35.6 °F 27.1 °F 28.4 °F 75% 29.98 in 9.0 mi NNW 12.7 mph 18.4 mph N/A   Overcast
5:35 AM 35.6 °F 28.0 °F 28.4 °F 75% 29.99 in 10.0 mi North 10.4 mph - 0.01 in   Overcast
5:45 AM 35.6 °F 28.6 °F 28.4 °F 75% 29.99 in 4.0 mi North 9.2 mph - N/A Snow Light Snow
6:05 AM 33.8 °F 23.2 °F 28.4 °F 81% 30.01 in 1.0 mi North 17.3 mph 28.8 mph N/A Snow Light Snow
6:45 AM 32.0 °F 24.2 °F 26.6 °F 80% 30.04 in 1.0 mi NNW 9.2 mph - N/A Snow Light Snow
7:13 AM 32.0 °F 23.0 °F 24.8 °F 75% 30.06 in 1.0 mi North 11.5 mph 20.7 mph N/A Snow Light Snow
7:34 AM 30.2 °F 18.5 °F 21.2 °F 69% 30.07 in 2.5 mi North 17.3 mph 23.0 mph N/A Snow Light Snow
7:50 AM 30.2 °F 18.9 °F 21.2 °F 69% 30.08 in 0.8 mi WNW 16.1 mph 25.3 mph N/A Snow Light Snow
8:10 AM 28.4 °F 16.6 °F 19.4 °F 69% 30.09 in 6.0 mi North 16.1 mph 29.9 mph N/A Snow Light Snow
8:45 AM 30.2 °F 23.4 °F 17.6 °F 60% 30.08 in 10.0 mi NNW 6.9 mph 16.1 mph N/A   Overcast
9:45 AM 30.2 °F 19.8 °F 15.8 °F 55% 30.09 in 10.0 mi North 13.8 mph 19.6 mph N/A   Mostly Cloudy
10:45 AM 30.2 °F 18.5 °F 15.8 °F 55% 30.11 in 10.0 mi North 17.3 mph 28.8 mph N/A   Mostly Cloudy
11:45 AM 30.2 °F 18.5 °F 14.0 °F 51% 30.11 in 10.0 mi North 17.3 mph 28.8 mph N/A   Overcast
12:45 PM 30.2 °F 18.9 °F 14.0 °F 51% 30.10 in 10.0 mi NNW 16.1 mph 23.0 mph N/A   Overcast
1:45 PM 30.2 °F 17.8 °F 14.0 °F 51% 30.12 in 10.0 mi NNW 19.6 mph 28.8 mph N/A   Clear
2:45 PM 30.2 °F 20.8 °F 14.0 °F 51% 30.14 in 10.0 mi NNW 11.5 mph 25.3 mph N/A   Clear
3:45 PM 30.2 °F 20.8 °F 14.0 °F 51% 30.15 in 10.0 mi NNW 11.5 mph 23.0 mph N/A   Clear
4:45 PM 30.2 °F 18.9 °F 12.2 °F 47% 30.15 in 10.0 mi North 16.1 mph 23.0 mph N/A   Clear
5:55 PM 28.4 °F 16.6 °F 12.2 °F 51% 30.21 in 10.0 mi North 16.1 mph 23.0 mph N/A   Clear
6:45 PM 28.4 °F 16.6 °F 12.2 °F 51% 30.22 in 10.0 mi NNW 16.1 mph 26.5 mph N/A   Clear
7:45 PM 26.6 °F 16.2 °F 12.2 °F 55% 30.22 in 10.0 mi North 11.5 mph 18.4 mph N/A   Clear
8:45 PM 26.6 °F 18.2 °F 12.2 °F 55% 30.23 in 10.0 mi NNW 8.1 mph - N/A   Clear
8:55 PM 26.6 °F 16.8 °F 12.2 °F 55% 30.22 in 10.0 mi NNW 10.4 mph 18.4 mph N/A   Clear
9:15 PM 26.6 °F 17.5 °F 12.2 °F 55% 30.23 in 10.0 mi NW 9.2 mph - N/A   Clear
9:35 PM 26.6 °F 18.2 °F 12.2 °F 55% 30.23 in 10.0 mi NNW 8.1 mph - N/A   Clear
9:55 PM 26.6 °F 15.7 °F 12.2 °F 55% 30.23 in 10.0 mi NNW 12.7 mph 19.6 mph N/A   Clear
10:15 PM 26.6 °F 16.2 °F 12.2 °F 55% 30.22 in 10.0 mi NNW 11.5 mph 17.3 mph N/A   Clear
10:35 PM 26.6 °F 18.2 °F 12.2 °F 55% 30.22 in 10.0 mi NNW 8.1 mph - N/A   Clear
10:55 PM 26.6 °F 18.2 °F 12.2 °F 55% 30.22 in 10.0 mi NNW 8.1 mph - N/A   Clear
11:15 PM 26.6 °F 18.2 °F 12.2 °F 55% 30.22 in 10.0 mi NNW 8.1 mph - N/A   Clear
11:35 PM 26.6 °F 16.2 °F 10.4 °F 51% 30.23 in 10.0 mi NW 11.5 mph 18.4 mph N/A   Clear
11:55 PM 26.6 °F 16.8 °F 10.4 °F 51% 30.23 in 10.0 mi NW 10.4 mph 18.4 mph N/A   Clear